Location: London
(51.5074°N, 0.1278°W)
Time: 20:06:22
(UTC+01:00)

Tiangong - Pass Details

Date: 04 October 2021
Orbit: 382 x 385 km, 41.5° (Epoch: 16 October)

Event Time Altitude Azimuth Distance (km) Brightness Sun altitude
Exits shadow 05:03:56 12° 161° (SSE) 1,294 3.7 -19.6°
Drops below altitude 10° 05:04:29 10° 152° (SSE) 1,398 4.0 -19.5°
Sets 05:07:17 0° 124° (SE) 2,249 5.5 -19.1°
